Location: Asni�res
(49.1337°N, 2.3555°E)
Time: 19:54:43
(UTC+00:00)

Cosmos 2227 - Pass Details

Date: 30 May 2022
Orbit: 833 x 863 km, 71.0° (Epoch: 25 June)

Event Time Altitude Azimuth Distance (km) Brightness Sun altitude
Rises 21:46:40 0° 323° (NW) 3,448 9.3 -14.0°
Reaches altitude 10° 21:49:29 10° 312° (NW) 2,509 7.8 -14.2°
Maximum altitude 21:54:10 27° 257° (WSW) 1,619 5.8 -14.6°
Drops below altitude 10° 21:58:52 10° 202° (SSW) 2,496 6.3 -14.9°
Enters shadow 21:59:03 - 201° (SSW) 2,556 6.3 -14.9°
